Location: Seattle
(47.6060°N, 122.3310°W)
Time: 13:56:32
(UTC-07:00)

ISS - Visible Passes

Search period start: 19 April 2014 00:00
Search period end: 29 April 2014 00:00
Orbit: 414 x 419 km, 51.6° (Epoch: 19 April)

Date Brightness Start Highest point End Pass type
(mag) Time Alt. Az. Time Alt. Az. Time Alt. Az.
19 Apr -3.1 20:45:59 10° WNW 20:49:21 73° NNE 20:52:33 11° ESE visible
19 Apr -1.5 22:23:03 10° W 22:25:27 24° SW 22:25:27 24° SW visible
20 Apr -2.3 21:34:23 10° WNW 21:37:31 38° SW 21:38:56 25° SSE visible
21 Apr -2.9 20:45:46 10° WNW 20:49:05 58° SSW 20:52:23 10° SE visible
21 Apr -0.5 22:24:25 10° WSW 22:25:13 11° SW 22:25:18 11° SW visible
22 Apr -1.0 21:34:36 10° W 21:36:52 17° SW 21:38:46 12° S visible
23 Apr -1.6 20:45:32 10° W 20:48:24 26° SW 20:51:15 10° SSE visible
25 Apr -0.5 20:46:03 10° WSW 20:47:16 12° SW 20:48:29 10° SSW visible
